TimeEST,TemperatureF,Dew PointF,Humidity,Sea Level PressureIn,VisibilityMPH,Wind Direction,Wind SpeedMPH,Gust SpeedMPH,PrecipitationIn,Events,Conditions,WindDirDegrees,DateUTC
12:54 AM,35.1,30.0,82,30.25,-9999.0,Calm,Calm,-,N/A,,Unknown,0,2013-02-23 05:54:00
1:54 AM,35.1,30.9,85,30.24,-9999.0,SSW,3.5,-,N/A,,Unknown,200,2013-02-23 06:54:00
2:54 AM,34.0,32.0,92,30.20,-9999.0,Calm,Calm,-,N/A,,Unknown,0,2013-02-23 07:54:00
3:54 AM,35.1,32.0,89,30.19,-9999.0,Calm,Calm,-,N/A,,Unknown,0,2013-02-23 08:54:00
4:54 AM,35.1,32.0,89,30.17,-9999.0,Calm,Calm,-,N/A,,Unknown,0,2013-02-23 09:54:00
5:54 AM,35.1,33.1,92,30.16,-9999.0,Variable,3.5,-,N/A,,Unknown,0,2013-02-23 10:54:00
6:54 AM,35.1,33.1,92,30.15,-9999.0,Calm,Calm,-,N/A,,Unknown,0,2013-02-23 11:54:00
7:54 AM,35.1,33.1,92,30.14,-9999.0,Calm,Calm,-,N/A,,Unknown,0,2013-02-23 12:54:00
8:54 AM,36.0,34.0,93,30.13,-9999.0,Calm,Calm,-,N/A,,Unknown,0,2013-02-23 13:54:00
9:54 AM,37.0,34.0,89,30.09,-9999.0,Calm,Calm,-,N/A,,Unknown,0,2013-02-23 14:54:00
10:54 AM,37.0,35.1,93,30.08,-9999.0,Calm,Calm,-,N/A,,Unknown,0,2013-02-23 15:54:00
11:54 AM,37.9,36.0,93,30.04,-9999.0,Calm,Calm,-,N/A,,Unknown,0,2013-02-23 16:54:00
12:54 PM,39.0,37.0,93,30.02,-9999.0,Calm,Calm,-,N/A,,Unknown,0,2013-02-23 17:54:00
1:54 PM,39.0,37.0,93,30.00,-9999.0,Variable,3.5,-,0.02,,Unknown,0,2013-02-23 18:54:00
2:54 PM,37.9,37.0,97,29.99,-9999.0,Calm,Calm,-,0.01,,Unknown,0,2013-02-23 19:54:00
3:54 PM,39.0,37.0,93,29.97,-9999.0,Variable,3.5,-,0.02,,Unknown,0,2013-02-23 20:54:00
4:54 PM,37.0,36.0,96,29.94,-9999.0,NNE,3.5,-,0.01,,Unknown,20,2013-02-23 21:54:00
5:54 PM,37.9,36.0,93,29.92,-9999.0,Calm,Calm,-,N/A,,Unknown,0,2013-02-23 22:54:00
6:54 PM,39.0,37.0,93,29.91,-9999.0,Calm,Calm,-,N/A,,Unknown,0,2013-02-23 23:54:00
7:54 PM,37.9,35.1,89,29.92,-9999.0,NNE,4.6,-,N/A,,Unknown,30,2013-02-24 00:54:00
8:54 PM,36.0,35.1,97,29.91,-9999.0,Variable,3.5,-,0.01,,Unknown,0,2013-02-24 01:54:00
9:54 PM,36.0,34.0,93,29.88,-9999.0,NE,4.6,-,0.01,,Unknown,40,2013-02-24 02:54:00
10:54 PM,35.1,34.0,96,29.87,-9999.0,Calm,Calm,-,0.01,,Unknown,0,2013-02-24 03:54:00
11:54 PM,35.1,34.0,96,29.85,-9999.0,Calm,Calm,-,N/A,,Unknown,0,2013-02-24 04:54:00